User: anonymous   Login
Location: *
(2.5500°S, 65.9667°W)
Time: 21:40:17
(UTC+00:00)
Language:

Vanguard 3 - Orbit

View from above orbital plane
View from above orbital plane
View from above satellite
View from above satellite

Ground track
Ground track

The orbit data is extracted from the following two-line orbital elements,

1 00020U 59007A   24102.85193990  .00002362  00000-0  97459-3 0  9996
2 00020  33.3402 247.5530 1652073 113.9239 264.2852 11.58360366392076
Epoch (UTC): 11 April 2024 20:26:47
Eccentricity: 0.1652073
inclination: 33.3402°
perigee height: 510 km
apogee height: 3236 km
right ascension of ascending node: 247.5530°
argument of perigee: 113.9239°
revolutions per day: 11.58360366
mean anomaly at epoch: 264.2852°
orbit number at epoch: 39207

The dashed part of the orbit path shows where the satellite is in the earth's shadow,  

DLR